Find Local Weather

World > North America > United States > Ohio

Bidwell, Ohio Regional Weather

Lat: 38.92N, Lon: 82.3W
Wx Zone: OHZ086
Warning FLW WEATHER ALERT - (More Info. Click Here) Warning
Feedback

Bidwell, OH Regional Weather

Expires:201905251300;;434511
ASUS41 KCLE 251212
RWRCLE
OHIO REGIONAL WEATHER ROUNDUP
NATIONAL WEATHER SERVICE WILMINGTON, OH
800 AM EDT SAT MAY 25 2019

NOTE: "FAIR" INDICATES FEW OR NO CLOUDS BELOW 12,000 FEET WITH NO
SIGNIFICANT WEATHER AND/OR OBSTRUCTIONS TO VISIBILITY.


OHZ036-037-039>041-045>050-054>059-063>069-073>076-082>088-251300-
  CENTRAL AND SOUTHEAST OHIO
  
CITY           SKY/WX    TMP DP  RH WIND       PRES   REMARKS
COLUMBUS       PTSUNNY   71  66  84 S5        30.06R                  
OSU AIRPORT    PTSUNNY   70  67  90 S6        30.06R                  
BOLTON FIELD   PTSUNNY   68  68 100 S5        30.07R FOG              
RICKENBACK AFB FAIR      69  67  94 S6        30.06S                  
NEWARK         FAIR      70  67  90 CALM      30.07R FOG              
MARION         CLOUDY    70  65  84 S9        30.05R                  
LANCASTER      PTSUNNY   69  67  93 SE3       30.08R                  
ZANESVILLE     FAIR      69  65  86 S6        30.08R                  
NEW PHILLY     FAIR      66  61  84 SE5       30.08R                  
$$
  

SKY/WX - Weather  TMP - Temperature  DP - Dew Point  RH - Relative Humidity
WIND - Wind Direction/Speed PRES - Barometric Pressure VSB - Visibility
WCI - Wind Chill Index E13G22 Wind - East Wind 13 mph/Gusts of 22 mph